Regional Weather Roundup
Issued by NWS Kansas City/Pleasant Hill, MO

Home | Current Version | Previous Version | Graphics & Text | Print | Product List | Glossary Off
Versions: 1 2 3 4 5 6 7 8 9 10 11 12 13 14 15 16 17 18 19 20 21 22 23 24 25 26 27 28 29 30 31 32 33 34 35 36 37 38 39 40 41 42 43 44 45 46 47 48 49 50

733
ASUS43 KEAX 271110
RWREAX

WEATHER ROUNDUP FOR EASTERN KANSAS AND NORTHWEST MISSOURI
NATIONAL WEATHER SERVICE KANSAS CITY/PLEASANT HILL MO
500 AM CST MON FEB 27 2017

KSZ040-057-103>105-MOZ028-029-037-043-271200-
...KANSAS CITY METROPOLITAN AREA...

CITY           SKY/WX    TMP DP  RH WIND       PRES   REMARKS
K.C. INTL      CLEAR     28  28 100 S8        30.02S FOG     WCI  20
K.C. DOWNTOWN  FOG       30  29  96 CALM      30.03S VSB 1/4
LEES SUMMIT    FOG       28  28 100 SE3       30.03S VSB 1
OLATHE - IXD   FOG       29  29 100 E3        30.02S VSB 3/4
OLATHE - OJC   PTCLDY    26  26 100 SE5       30.01F FOG     WCI  20
LAWRENCE       FOG       24  24 100 CALM      30.03S VSB 1/4

$$

MOZ001>008-011>017-020>025-030>033-038>040-044>046-053-054-271200-
...NORTHERN AND CENTRAL MISSOURI...

CITY           SKY/WX    TMP DP  RH WIND       PRES   REMARKS
ST. JOSEPH     FOG       26  24  92 S3        30.03R VSB<1/4
MOSBY          FOG       28  28 100 CALM      30.05R VSB<1/4
WARRENSBURG    FOG       25  23  93 CALM      30.04S VSB 1/2
WHITEMAN AFB   FOG       27  27 100 SE5       30.03S VSB 0   WCI  22
CLINTON        FOG       27  27 100 E3        30.05R VSB 1/4
SEDALIA        FOG       29  27  92 CALM      30.06R VSB 1/4
WARSAW         NOT AVBL
CHILLICOTHE      N/A     25  24  96 CALM      30.06R
KIRKSVILLE     FOG       24  23  96 SE6       30.05S VSB 1/4 WCI  17

$$

MOZ041-047>049-056>058-063>065-088>090-097-271200-
...EASTERN AND SOUTHERN MISSOURI...

CITY           SKY/WX    TMP DP  RH WIND       PRES   REMARKS
ST. LOUIS INTL MOCLDY    40  35  83 E5        30.10R
SPIRIT OF STL  CLOUDY    32  31  96 CALM      30.09R FOG
COLUMBIA       CLEAR     33  32  96 E8        30.05S WCI  26
JEFFERSON CITY PTCLDY    30  28  92 CALM      30.07S FOG
ROLLA          CLEAR     31  28  89 SE5       30.04R WCI  26
OSAGE BEACH    CLEAR     29  28  96 CALM      30.06R FOG
SPRINGFIELD    CLEAR     35  26  69 SE9       30.01R WCI  28
BRANSON        CLEAR     37  30  75 CALM      30.04R
JOPLIN         CLEAR     34  28  79 SE6       30.01R WCI  29
WEST PLAINS    CLEAR     33  26  75 CALM      30.06R

$$

IAZ060-094-KSZ022-034>040-054-083-096-NEZ052-066-093-271200-
...KANSAS...SOUTHEAST NEBRASKA AND IOWA...

CITY           SKY/WX    TMP DP  RH WIND       PRES   REMARKS
TOPEKA         MOCLDY    23  23 100 E3        30.01S FOG
MANHATTAN      CLEAR     23  19  85 CALM      29.97F
EMPORIA        FOG       24  24 100 SE3       29.99R VSB 1/4
CHANUTE        PTCLDY    23  22  96 E5        30.00R WCI  17
WICHITA        CLEAR     33  27  78 E7        29.94S WCI  27
OMAHA          CLEAR     25  18  74 CALM      29.98S
LINCOLN        CLEAR     19  16  88 CALM      29.97F
FALLS CITY     CLEAR     23  20  88 SE6       29.99S WCI  16
LAMONI         CLEAR     30  28  92 S7        30.01R FOG     WCI  23
DES MOINES     CLEAR     27  20  75 E5        30.01S WCI  22

$$





USA.gov is the U.S. government's official web portal to all federal, state and local government web resources and services.